Location: Paris
(48.6709°N, 2.3750°E)
Time: 19:11:55
(UTC+02:00)

CUBESAT XI-V - Pass Details

Date: 30 June 2022
Orbit: 667 x 690 km, 98.1° (Epoch: 08 August)

Event Time Altitude Azimuth Distance (km) Brightness Sun altitude
Exits shadow 04:21:49 15° 214° (SW) 1,784 ? -10.9°
Maximum altitude 04:24:48 28° 265° (W) 1,254 ? -10.7°
Drops below altitude 10° 04:28:47 10° 325° (NW) 2,111 ? -10.3°
Sets 04:31:17 0° 337° (NNW) 3,028 ? -10.0°
